SL-16 DEB, 39717

Orbit data source: Space-Track

SL-16 DEB, 39717 is space debris in LEO originally from a launch on Fri, 25 Dec 1992 UTC launched from the Tyuratam Missile And Space Complex (TTMTR). Debris objects in space refer to the collection of defunct objects orbiting the Earth. Examples of debris include non-operational satellites, rocket bodies, and fragments generated from explosions, collisions, or faulty payload assembly.

Loading next visibility...
Identifier
39717, 1992-093KH
Orbit
LEO
Country
Flag of CISCIS
Related business
Manufacturer
Unknown
Mission
Spacecraft
Bus & Motor
Unknown
Mass
Unknown
Launch date (UTC)
1992-12-25 (33 years ago)
Launch vehicle
Unknown
Launch site
Tyuratam Missile And Space Complex (TTMTR)
Object type
Payload
Rocket body
Debris
Shape & HBR
Unknown shape, 0.1 m
Radar Cross Section
Small (<0.1 m²)

Expand to show TLE details & history
Last TLE update: 4 days ago

TLE from 4 days ago
0 SL-16 DEB
1 39717U 92093KH  25300.58099932  .00001240  00000-0  79263-3 0  9992
2 39717  70.6868 259.0808 0102447 279.4729  79.4817 14.02965563589834
Epoch: 2025-10-27T13:56Z
TLE epoch observation values (Epoch: 2025-10-27T13:56:38.341Z)
Latitude
-0.00005°
Longitude
13.74024°
Altitude
873.067 km
Speed
7.423 km/s
True Right ascension
17h 16m 19s
True Declination
0° 00' 00"
Sunlit
Object was in daylight at epoch
Visualization orbit readout
Latitude
Unknown
Longitude
Unknown
Altitude
Unknown
Speed
Unknown
Apparent Right ascension
Unknown
Apparent Declination
Unknown
Sunlit
N/A
Visualization observer readout
Local Sidereal Time
08:02:57
Azimuth
Unknown
Elevation
Unknown
Doppler factor
Unknown
Orbital elements
Apogee altitude
955.884 km
Perigee altitude
807.138 km
Semi-major axis
7,259.648 km
Eccentricity
0.01024
Inclination
70.6868°
RAAN
259.0808°
Arg. of periapsis
279.4729°
True anomaly
80.63856°
Mean anomaly
79.4817°
Eccentric anomaly
80.05987°
Mean motion
3.50889 °/min
Orbital period
102.6 mins
BSTAR
0.00079263
Loading maneuver chart data...
Computing Atmospheric mass density...
Loading historical data...
Loading historical data...
Loading historical data...
Loading historical data...
Loading historical data...
Loading historical data...
Loading historical data...

Documentation

Showing up to 5 results
|